Regional Weather Roundup
Issued by NWS Wakefield, VA

Home | Current Version | Previous Version | Text Only | Print | Product List | Glossary Off
Versions: 1 2 3 4 5 6 7 8 9 10 11 12 13 14 15 16 17 18 19 20 21 22 23 24 25 26 27 28 29 30 31 32 33 34 35 36 37 38 39 40 41 42 43 44 45 46 47 48 49 50

000
ASUS41 KAKQ 060614
RWRAKQ

REGIONAL WEATHER ROUNDUP
NATIONAL WEATHER SERVICE WAKEFIELD VA
100 AM EST SAT FEB 06 2016

Note: "fair" indicates few or no clouds below 12,000 feet with no
significant weather and/or obstructions to visibility. * = Denotes
station may not report precipitation (e.g., rain,snow,etc.),
thunder or fog.

VAZ042-051-052>054-056-060700-
NORTHERN VIRGINIA

CITY           SKY/WX    TMP DP  RH WIND       PRES   REMARKS
WASH NATIONAL  FAIR      35  17  47 NW5       30.41F
DULLES         FAIR      25  19  78 CALM      30.40R
FORT BELVOIR   FAIR      26  21  82 NW1       30.42R
QUANTICO       FAIR      30  22  72 W6        30.43R
FREDERICKSBRG* FAIR      26  22  85 CALM      30.42S
STAFFORD*      FAIR      23  20  90 CALM      30.46R
WARRENTON      FAIR      23  21  93 CALM      30.41R
CULPEPER*      FAIR      22  20  90 CALM      30.41S
MANASSAS*      FAIR      23  21  93 CALM      30.42R
LEESBURG*      FAIR      30  27  86 CALM      30.41R
WINCHESTER     FAIR      28  19  69 CALM      30.38S
FRONT ROYAL*   FAIR      28  18  64 CALM      30.37S
LURAY*         FAIR      27  19  74 SE3       30.38S
$$

VAZ048-049-060>072-079>083-060700-
CENTRAL AND SOUTH CENTRAL VIRGINIA

CITY           SKY/WX    TMP DP  RH WIND       PRES   REMARKS
RICHMOND       FAIR      27  22  81 CALM      30.41S
CHESTERFIELD*  FAIR      25  10  54 CALM      30.42S
PETERSBURG*    FAIR      25  24  95 CALM      30.43R
HANOVER        FAIR      26  22  84 CALM      30.43R
TAPPAHANNOCK*  FAIR      26  23  85 CALM      30.42R
QUINTON*       FAIR      27  23  85 CALM      30.42R
CHARLOTTSVILLE FAIR      30  16  56 W6        30.38S
GORDONSVILLE*  FAIR      24  22  93 CALM      30.40S
ORANGE*        FAIR      27  23  86 CALM      30.42S
LOUISA*        FAIR      23  18  80 CALM      30.39R
BUMPASS*       FAIR      24  20  83 CALM      30.41R
FARMVILLE*     FAIR      24  22  92 CALM      30.40S
CREWE*         FAIR      24  24 100 CALM      30.41R
FORT PICKETT*  FAIR      26  21  83 CALM      30.41R
CHASE CITY*    FAIR      26  25  94 CALM      30.40S
CLARKSVILLE*   FAIR      28  23  80 CALM      30.41R
SOUTH HILL*    FAIR      25  22  89 CALM      30.47R
LAWRENCEVILLE* FAIR      28  24  86 CALM      30.41S
EMPORIA*       FAIR      27  23  86 CALM      30.43S
$$

VAZ088>098-060700-
SOUTHEAST VIRGINIA

CITY           SKY/WX    TMP DP  RH WIND       PRES   REMARKS
NORFOLK        FAIR      38  22  52 N8        30.40F
VIRGINIA BEACH FAIR      37  23  56 N6        30.39F
NORFOLK NAVAL  FAIR      37  22  54 N10       30.41F
WEST POINT*    FAIR      25  23  91 CALM      30.44S
SALUDA*        FAIR      30  25  80 CALM      30.41S
NEWPORT NEWS   FAIR      28  24  85 NW3       30.41S
LANGLEY AFB    FAIR      33  22  63 N6        30.40S
FORT EUSTIS    FAIR      30  20  66 CALM      30.40S
WILLIAMSBURG*  FAIR      30  27  86 CALM      30.42F
HR EXEC AP*    FAIR      28  23  80 N3        30.43S
FRANKLIN*      FAIR      28  26  95 CALM      30.42F
US460-WAKEFLD  FAIR      27  24  89 CALM      30.42S
$$

VAZ020-022-025-037-045-060700-
WEST CENTRAL AND SOUTHWEST VIRGINIA

CITY           SKY/WX    TMP DP  RH WIND       PRES   REMARKS
STAUNTON*      FAIR      29  21  73 CALM      30.38F
WAYNESBORO*    FAIR      24  15  67 CALM      30.35F
HOT SPRINGS VA FAIR      23  13  65 W7        30.23R
LYNCHBURG      FAIR      25  15  66 CALM      30.39F
DANVILLE       FAIR      27  20  75 CALM      30.40F
SOUTH BOSTON*  FAIR      26  24  92 CALM      30.41S
MARTINSVILLE   FAIR      20  17  85 CALM      30.42R
ROANOKE        FAIR      26  18  71 N5        30.40S
BLACKSBURG     FAIR      23  18  80 CALM      30.37S
DUBLIN*        FAIR      27  19  72 SW3       30.36S
MARION*        FAIR      24  17  76 CALM      30.36R
HILLSVILLE*    FAIR      26  14  59 SW3       30.31S
RICHLANDS*     FAIR      28   8  43 CALM      30.32S
WISE*          FAIR      30   7  37 S5        30.32F
ABINGDON*      FAIR      27  16  63 CALM      30.35S
$$

MDZ021>025-VAZ099-100-060700-
SOUTHERN MARYLAND AND THE DELMARVA PENINSULA

CITY           SKY/WX    TMP DP  RH WIND       PRES   REMARKS
PATUXENT RIVER CLOUDY    32  20  61 N5        30.40S
BAY BRIDGE APT   N/A     34  21  60 CALM      30.40F
LEONARDTOWN    CLOUDY    28  21  74 CALM      30.42S
DOVER          CLOUDY    32  23  70 W5        30.37S
GEORGETOWN     CLOUDY    32  22  66 CALM      30.39S
EASTON         PTCLDY    32  25  77 CALM      30.43S
CAMBRIDGE      CLOUDY    32  23  69 NW5       30.39S
SALISBURY      CLOUDY    29  24  82 CALM      30.39S
OCEAN CITY     CLEAR     30  23  75 NW3       30.39R
WALLOPS ISLAND FAIR      30  23  75 NW5       30.40S
ACCOMACK*      FAIR      34  21  60 CALM      30.40S
$$

NCZ012>017-030>032-060700-
NORTH CENTRAL AND EASTERN NORTH CAROLINA

CITY           SKY/WX    TMP DP  RH WIND       PRES   REMARKS
ROANOKE RAPIDS FAIR      28  28 100 CALM      30.42R
RALEIGH        CLEAR     29  25  85 CALM      30.41S
ELIZABETH CITY CLEAR     31  26  82 W5        30.41S
AHOSKIE*       CLEAR     29  28  94 CALM      30.42S
EDENTON*       CLEAR     33  30  90 N3        30.42R
CURRITUCK*     CLEAR     32  31  96 CALM      30.41S
KILL DEVIL HLS CLEAR     37  24  58 NW3       30.38S
MANTEO         CLEAR     38  27  62 N7        30.40S
CAPE HATTERAS  CLEAR     41  27  57 NE6       30.39S
TARBORO*       FAIR      30  29  98 CALM      30.43R
GOLDSBORO      CLEAR     32  32 100 CALM      30.40R
WASHINGTON     CLEAR     30  28  94 CALM      30.42R
GREENVILLE     CLEAR     30  30 100 CALM      30.42R
NEW BERN       CLEAR     35  28  75 NE3       30.42R
WILMINGTON     CLEAR     34  31  88 CALM      30.40F
$$

VAZ048-060700-
ELSEWHERE

CITY           SKY/WX    TMP DP  RH WIND       PRES   REMARKS
HARRISBURG PA  CLOUDY    29  17  61 NW7       30.37F
BALTIMORE      PTCLDY    28  19  69 W5        30.39F
ANNAPOLIS      CLOUDY    31  22  69 NW3       30.39F
ANDREWS AFB    FAIR      25  20  82 CALM      30.39S
PHILADELPHIA   PTCLDY    31  18  58 NW5       30.39R
HENDERSON NC   CLEAR     29  23  78 CALM      30.40S
GREENSBORO     CLOUDY    31  15  52 CALM      30.38S
ROCKY MOUNT    CLEAR     30  28  92 CALM      30.42R
$$

VAZ100-060700-
MARINE

STATION/POSITION TIME  TEMP    WIND        PRES    WAVE   SWELL
                       AIR SEA DIR/SP/G            HT/PER HT/PER
                 (UTC) (F)     (DEG/KT/KT) (MB)    (FT/S) (FT/S)
BRANDYWINE LGT   0500   36     340/ 14/ 15 1028.6R
CAPE MAY NJ      0500   37 42  330/  6/ 10 1028.2R
LEWES DE         0500   38 42  330/ 13/ 16 1028.8R
15NM E FENWICK I 0550   39 45              1028.6R   5/ 8
OCEAN-CITY-INLET 0500   35 42  340/  6/  7 1028.2R
WACHAPREAGUE VA  0500   34 45   CALM  /  3 1029.4R
THOMAS POINT MD  0600   34 39  330/  6/  7 1030.2F
GOOSES REEF MD   0600   37 39  350/ 10/ 12 1030.3F   1/ 2
COVE POINT MD    0500   36     360/ 12/ 15 1030.1R
SOLOMONS ISLAND  0500   34 41  350/  3/  5   N/A
BISHOPS HEAD MD  0500   33 41  330/  5/  6 1028.5R
POTOMAC MD       0600   35 41  350/  8/ 10 1028.6F   1
CAMBRIDGE MD     0500   37 40  320/  8/ 11 1028.7R
LEWISETTA VA     0500   37 43  360/  7/ 11 1029.3S
RAPPAHANNOCK LGT 0500          350/ 15/ 17 1029.5R
STINGRAY PT      0600   38 42  350/  8/ 10 1029.7R   1/ 3
YORK RVR RNG VA  0500   38      10/ 10/ 13 1029.0R
YORKTOWN VA      0500   37 44  320/  5/  6 1029.6R
JAMESTOWN VA     0600   34 45  330/  2/  4   N/A     0
DOMINION TERM VA 0500   37     340/  3/  4 1029.8R
KIPTOPEKE VA     0500      44   20/  4/  6   N/A
CHES BAY BRIDGE  0500   39 43  330/ 13/ 16 1029.2R
CAPE HENRY VA    0500   40     360/ 12/ 16   N/A
CHESAPEAKE LGHT  0500   40     360/ 14/ 15 1030.0R
WILLOUBY STN VA  0500   38     350/  8/  8 1027.5S
CAPE HENRY BUOY  0528      46                N/A     4/ 9   2/11
1ST LANDING BUOY 0600      42                N/A     2/ 3
CAPE CHARLES BUO 0526      45                N/A     4/ 9   3/ 9
OFFSHORE WE BUOY 0521      49                N/A     6/ 8   5/ 8
64NM E OF VA BCH 0550   43 53   10/ 14/ 19 1028.4R   9/10   8/10
DUCK PIER NC     0500   40 45  330/ 12/ 15 1028.9R
44100 DUCK FRF   0524      47                N/A     6/ 8   2/11
44056 DUCK FRF   0511      45                N/A     5/ 9   2/11
OREGON INLET NC  0500   39 46  340/  7/ 11 1029.3R
HATTERAS NC      0500   43 54  360/ 18/ 20 1028.6F
DIAMOND SHLS NC  0550   45 73   10/ 14/ 21 1029.1R   7/11   7/11
$$



USA.gov is the U.S. government's official web portal to all federal, state and local government web resources and services.